Miscellaneous Local Product
Issued by NWS North Platte, NE

Home | Current Version | Previous Version | Text Only | Print | Product List | Glossary On
Versions: 1 2 3 4 5 6 7 8 9 10 11 12 13 14 15 16 17 18 19 20 21 22 23 24 25 26 27 28 29 30 31 32 33 34 35 36 37 38 39 40 41 42 43 44 45 46 47 48 49 50
434
AXUS43 KLBF 192010
MISLBF


WESTERN AND NORTH CENTRAL NEBRASKA HOURLY WEATHER ROUNDUP
NATIONAL WEATHER SERVICE NORTH PLATTE NE
300 PM CDT TUE SEP 19 2017

NOTE: "FAIR" INDICATES FEW OR NO CLOUDS BELOW 12,000 FEET WITH NO
SIGNIFICANT WEATHER AND/OR OBSTRUCTIONS TO VISIBILITY.

NOTE: STATIONS NOT REPORTING VARIABLES SUCH AS SKY/WEATHER OR
PRESSURE ARE PROVIDED BY RAWS AND APRS NETWORKS AND ARE NOT UNDER
NATIONAL WEATHER SERVICE QUALITY CONTROL.

...OBSERVATIONS IN AND NEAR THE EASTERN PANHANDLE OF NEBRASKA...

CITY           SKY/WX    TMP DP  RH WIND       PRES   REMARKS
PINE RIDGE     CLOUDY    78  46  32 SE5       29.52F
GORDON         FAIR      75  51  43 SW7       29.54F
CHADRON        CLOUDY    81  36  19 VRB5      29.52S
ALLIANCE       CLOUDY    81  45  28 S10       29.55F
SIDNEY         CLOUDY    81  34  18 SW10      29.59F
CRESCENT LAKE    N/A     72  55  55 SE5         N/A
$$

...OBSERVATIONS IN NORTHERN NEBRASKA AND FAR SOUTHERN SOUTH DAKOTA...

CITY           SKY/WX    TMP DP  RH WIND       PRES   REMARKS
WINNER         FAIR      79  66  64 S23G30    29.47F
VALENTINE      CLOUDY    81  62  52 S14       29.50F
THEDFORD       CLOUDY    82  60  46 S16G24    29.53F
AINSWORTH      CLOUDY    79  65  62 S17G23    29.52F
O`NEILL        CLOUDY    83  68  60 SE28      29.53F
ORD            CLOUDY    83  63  50 SE17G26   29.52F
BROKEN BOW     CLOUDY    83  63  50 SE16G29   29.53F
VALENTINE NWR    N/A     77  62  60 S13         N/A
HALSEY           N/A     79  61  54 S9G16       N/A
BUTTE            N/A     80  67  65 S23G33      N/A
CHAMBERS         N/A     84  68  58 S6G13       N/A
EWING            N/A     83  70  64 S12G21      N/A
$$

...OBSERVATIONS IN SOUTHWEST NEBRASKA AND FAR NORTHEAST COLORADO...

CITY           SKY/WX    TMP DP  RH WIND       PRES   REMARKS
WRAY           FAIR      91  21   8 SW16G22   29.56F
HOLYOKE        FAIR      88  30  12 S7        29.57F
IMPERIAL       CLOUDY    88  40  18 E6        29.53F
OGALLALA       CLOUDY    85  39  19 S8        29.54F
NORTH PLATTE   CLOUDY    87  59  38 SE7       29.52F
MCCOOK         CLOUDY    92  48  22 S21G29    29.53F
LEXINGTON      CLOUDY    90  57  31 S17G24    29.53F
STAPLETON        N/A     82  59  45 S5          N/A
GOTHENBURG       N/A     84  58  40 SE12        N/A
CALLAWAY         N/A     83  67  57 S16         N/A
$$

...OBSERVATIONS IN CENTRAL LINCOLN COUNTY AREA...

CITY           SKY/WX    TMP DP  RH WIND       PRES   REMARKS
N.P. AIRPORT   CLOUDY    87  59  38 SE7       29.52F
N.P. DOWNTOWN    N/A     86  61  43 CALM        N/A
N.P. SOUTHEAST   N/A     86  59  40 SE5G13      N/A
N.P. HILLCREST   N/A     84  60  43 SE10        N/A
$$

...SOME OBSERVATIONS FROM AROUND THE REGION...

CITY           SKY/WX    TMP DP  RH WIND       PRES   REMARKS
DENVER         CLOUDY    85  12   6 SE9       29.61F
LIMON          CLOUDY    79  18  10 SW21G30   29.68F
ASPEN          SUNNY     71  16  12 SW14G29   29.87F
LARAMIE        CLOUDY    59  34  39 NW30G36   29.78R
CASPER         LGT RAIN  47  45  93 SW12      29.78R
CHEYENNE       SUNNY     79  15   9 S7G17     29.67F
SCOTTSBLUFF    CLOUDY    78  48  34 SE10      29.54F
GRAND ISLAND   SUNNY     86  68  54 SE18G29   29.57F
OMAHA          MOSUNNY   88  67  49 SE28G36   29.64F HX  91
SIOUX FALLS    CLOUDY    81  70  69 SE21G32   29.60F
PIERRE         CLOUDY    80  65  59 S20G26    29.42F
RAPID CITY     SUNNY     70  45  40 N13       29.51F
BISMARCK       CLOUDY    75  50  41 W12       29.46F
KANSAS CITY    SUNNY     86  71  60 S18       29.77F HX  91
HILL CITY      SUNNY    100  42  13 S25G35    29.54F HX  95
WICHITA        MOSUNNY   95  68  41 S29G38    29.67F HX  99
DODGE CITY     SUNNY     99  41  13 S32G38    29.63F HX  94
OKLAHOMA CITY  MOSUNNY   93  69  45 S21G30    29.78F HX  98
DALLAS         PTSUNNY   96  70  42 S15       29.82F HX 102
AMARILLO       SUNNY     92  42  17 SW25G37   29.82F
$$




USA.gov is the U.S. government's official web portal to all federal, state and local government web resources and services.